Location: Kerentrech
(47.7567°N, 3.3595°W)
Time: 18:33:33
(UTC+00:00)

Cosmos 2219 Rocket - Pass Details

Date: 17 February 2020
Orbit: 828 x 846 km, 71.0° (Epoch: 05 April)

Event Time Altitude Azimuth Distance (km) Brightness Sun altitude
Exits shadow 04:14:47 23° 354° (N) 1,744 3.9 -31.1°
Drops below altitude 10° 04:17:19 10° 13° (NNE) 2,478 4.9 -30.6°
Sets 04:20:03 0° 24° (NNE) 3,416 5.9 -30.2°
